Location: Ajisawe
(8.4333°N, 4.3833°E)
Time: 12:21:39
(UTC+00:00)

Courier 1B Rocket - Pass Details

Date: 25 April 2021
Orbit: 920 x 1202 km, 28.2° (Epoch: 07 May)

Event Time Altitude Azimuth Distance (km) Brightness Sun altitude
Rises 23:14:49 0° 302° (WNW) 3,835 - -67.2°
Reaches altitude 10° 23:17:29 10° 305° (NW) 2,921 - -67.3°
Maximum altitude 23:24:42 70° 28° (NNE) 1,203 - -67.7°
Drops below altitude 10° 23:32:23 10° 111° (ESE) 3,097 - -68.0°
Sets 23:35:17 0° 113° (ESE) 4,078 - -68.0°
